Tracking 35030 objects as of 11-Aug-2026
HD Live streaming from Space Station
objects crossing your sky now

SL-3 DEB


SL-3 DEB is no longer on orbit


NORAD ID: 18277
Int'l Code: 1971-003C
Launch date: January 20, 1971
Source: Commonwealth of Independent States (former USSR) (CIS)
Launch site: PLESETSK MISSILE AND SPACE COMPLEX (PKMTR)
Decay date: 1996-07-28

Note: This is SATELLITE DEBRIS
Your satellite tracking list
Your tracking list is empty




NASA's NSSDC Master Catalog

Two Line Element Set (TLE):
1 18277U 71003C   96209.36833540 +.05436185 -97484-6 +24959-3 0  9997
2 18277 081.1528 273.3355 0012449 246.4409 118.3780 16.42000015517920
Source of the keplerian elements: AFSPC